www.pogodaiklimat.ru

Погода и климат >> Архив погоды >> Тунис >> Таузар


ПОГОДА в Таузаре

  • Прогноз погоды в Таузаре
  • Монитор погоды в Таузаре

АРХИВ ПОГОДЫ в Таузаре

Время (UTC), дата Ветер
(напр.,м/с)
 
Видим.   Явления Облачность Т
(С)
Тd
(С)
f
(%)
Тe
(С)
Тes
(С)
Комфортность P
(гПа)
Po
(гПа)
Тmin
(С)
Tmax
(С)
R
(мм)
R24
(мм)
S
(см)
00 13.09 В 9-12
{19}
5000 м 5/5 900 м
[Cu med, cong]
+26.6 +22.2 77 +35 +35 очень
душно
1020.7 1010.7
03 13.09 В 6-8
{13}
5000 м 5/5 900 м
[Cu med, cong]
+25.9 +22.0 79 +33 +33 очень
душно
1021.5 1011.5
06 13.09 В 7-9
{13}
8000 м 4/4 900 м
[Cu med, cong]
+25.3 +21.0 77 +32 +32 очень
душно
1020.9 1010.9 +24.9 +28.8
09 13.09 В 11-15
{17}
5000 м ясно +29.2 +21.7 64 +37 +38 очень
душно
1022.5 1012.6
12 13.09 В 9-12
{17}
5000 м ясно +33.3 +21.5 50 +41 +43 опасность
перегрева
1020.9 1011.2
15 13.09 В 8-11
{14}
8000 м ясно +35.3 +20.0 41 +41 +42 опасность
перегрева
1019.6 1009.9
18 13.09 В 9-13
{14}
8000 м 3/3 1200 м
[Cu med, cong]
+31.5 +20.1 51 +38 +38 очень
душно
1020.0 1010.2 +35.5
21 13.09 В 8-13
{14}
8000 м 3/3 1200 м
[Cu med, cong]
+28.3 +20.3 62 +35 +35 очень
душно
1021.7 1011.8
00 14.09 В 10-14
{14}
10 км 3/3 1200 м
[Cu med, cong]
+26.5 +20.8 71 +33 +33 очень
душно
1020.9 1010.9
03 14.09 В 9-13
{15}
>70 км 4/4 1200 м
[Cu med, cong]
+25.4 +21.3 78 +32 +32 очень
душно
1020.8 1010.8
06 14.09 В 7-10
{15}
8000 м 8/4 1200 м
[Cu med, cong Ac cast Ci sp]
+25.3 +21.6 80 +32 +32 очень
душно
1022.0 1012.0 +25.0
09 14.09 В 8-11
{13}
8000 м 3/3 1200 м
[Cu med, cong]
+28.4 +20.7 63 +35 +37 очень
душно
1022.8 1012.9
12 14.09 В 7 8000 м ясно +32.6 +17.6 41 +37 +41 очень
душно
1021.1 1011.3
15 14.09 В 6-9
{11}
8000 м ясно +34.6 +16.0 33 +37 +40 очень
душно
1019.3 1009.6
18 14.09 В 6-8
{11}
8000 м 4/3 900 м
[Cu med, cong Ci sp]
+32.3 +17.7 42 +36 +36 очень
душно
1019.5 1009.7 +35.0
21 14.09 В 8-11
{12}
8000 м 3/3 900 м
[Cu med, cong]
+28.5 +19.2 57 +34 +34 очень
душно
1020.5 1010.6
00 15.09 В 9-12
{14}
8000 м ясно +26.6 +18.5 61 +31 +31 душно 1020.5 1010.5
03 15.09 В 7-9
{11}
8000 м 5/5 900 м
[Cu med, cong]
+25.4 +19.1 68 +30 +30 душно 1020.6 1010.6
06 15.09 В 5-7
{11}
8000 м 3/3 900 м
[Cu med, cong]
+24.8 +19.2 71 +30 +30 душно 1022.5 1012.5 +24.6 +32.1
09 15.09 В 7-9
{9}
10 км 4/0
[Ci sp]
+28.1 +16.7 50 +32 +35 душно 1023.2 1013.2
12 15.09 ЮВ 6-11
{12}
10 км 4/0
[Ci sp]
+31.7 +13.5 33 +33 +38 жарко 1020.7 1010.9
15 15.09 В 4-7
{11}
10 км 4/0
[Ci sp]
+32.6 +14.7 34 +34 +38 очень
жарко
1018.9 1009.1
18 15.09 В 2-3
{11}
10 км 4/0
[Ci sp]
+31.0 +15.8 40 +34 +34 душно 1019.0 1009.2 +33.3
21 15.09 В 6-8
{8}
10 км 3/0
[Ci sp]
+28.7 +16.6 48 +32 +32 душно 1019.2 1009.3
00 16.09 В 7-9
{10}
10 км ясно +26.1 +19.2 66 +31 +31 очень
душно
1019.3 1009.3
03 16.09 ЮВ 6-8
{9}
н/о н/о +25.0 +18.2 66 +29 +29 душно 1018.3 1008.3
06 16.09 ЮВ 5-7
{9}
10 км ясно +24.3 +17.5 66 +28 +29 душно 1018.6 1008.6 +24.0
09 16.09 ЮВ 5-7
{8}
10 км ясно +28.0 +16.0 48 +31 +37 душно 1019.1 1009.2
12 16.09 ЮЗ 3-5
{8}
10 км ясно +32.8 +12.9 30 +33 +46 жарко 1017.9 1008.1
15 16.09 З 4-5
{6}
10 км ясно +34.0 +14.0 30 +35 +39 очень
жарко
1015.8 1006.1
18 16.09 СЗ 1-2
{6}
10 км ясно +31.9 +14.5 35 +34 +34 душно 1015.6 1005.8 +34.6
21 16.09 С 1-2
{4}
10 км ясно +29.3 +16.5 46 +33 +33 душно 1016.1 1006.2
00 17.09 ЮВ 3-3
{5}
10 км ясно +29.3 +15.1 42 +32 +32 душно 1015.8 1005.9
06 17.09 В 5-7
{8}
10 км ясно +25.8 +19.0 66 +31 +31 очень
душно
1016.2 1006.2 +25.3 +31.7
09 17.09 В 4-6
{7}
10 км ясно +30.6 +16.6 43 +34 +40 очень
душно
1017.1 1007.3
12 17.09 Ю 2-4
{7}
10 км ясно +35.5 +15.8 31 +38 +53 опасность
солнечного
удара
1015.8 1006.1
15 17.09 ЮЗ 2-5
{5}
10 км 3/0
[Ci sp]
+37.0 +14.9 27 +38 +44 душно 1013.6 1004.0
18 17.09 СЗ 2-2
{6}
10 км 4/3 900 м
[Cu med, cong Ci sp]
+34.5 +14.9 31 +36 +36 душно 1013.6 1003.9 +38.2
21 17.09 З 2-2
{3}
10 км 4/4 900 м
[Cu med, cong]
+30.8 +16.0 41 +34 +34 очень
душно
1014.8 1005.0
00 18.09 З 2-2
{4}
10 км 4/4 900 м
[Cu med, cong]
+29.5 +15.6 43 +32 +32 душно 1014.0 1004.2
03 18.09 В 4-5
{7}
10 км 3/3 900 м
[Cu med, cong]
+28.2 +20.0 61 +34 +34 очень
душно
1013.7 1003.9
06 18.09 ЮВ 4-5
{7}
10 км ясно +27.4 +20.7 67 +34 +34 очень
душно
1014.9 1005.0 +27.1
09 18.09 ЮВ 5-7
{8}
10 км 3/3 900 м
[Cu med, cong]
+32.7 +18.5 43 +37 +41 очень
душно
1015.5 1005.8
12 18.09 Ю 3-6
{8}
10 км 8/6 900 м
[Cu med, cong Ci sp]
+36.9 +14.2 26 +38 +42 очень
душно
1014.9 1005.3
15 18.09 З 4-5
{9}
10 км 6/6 900 м
[Cu med, cong]
+37.5 +10.0 19 +36 +38 очень
жарко
1013.4 1003.8
18 18.09 З 4-5
{11}
10 км 9/9 900 м
[Cu med, cong]
+34.8 +12.5 26 +35 +35 очень
жарко
1013.7 1004.0 +38.7
21 18.09 СВ 8-11
{15}
8000 м 9/9 900 м
[Cu med, cong]
+31.2 +13.9 35 +33 +33 жарко 1015.9 1006.1
00 19.09 ЮВ 4-5
{15}
8000 м 5/5 900 м
[Cu med, cong]
+29.5 +14.9 41 +32 +32 душно 1015.2 1005.4
06 19.09 В 2-2
{8}
8000 м 3/3 900 м
[Cu med, cong]
+27.2 +14.6 46 +30 +30 душно 1015.3 1005.4 +25.2
09 19.09 ЮВ 4-5
{6}
8000 м 3/3 900 м
[Cu med, cong]
+31.9 +14.5 35 +34 +39 душно 1016.5 1006.7
12 19.09 Ю 3-4
{6}
8000 м 5/5 900 м
[Cu med, cong]
+34.4 +13.8 29 +35 +42 очень
жарко
1015.5 1005.8
15 19.09 З 6-8
{9}
8000 м 5/5 900 м
[Cu med, cong]
+38.2 +11.3 20 +37 +39 очень
жарко
1014.0 1004.4
18 19.09 ЮЗ 4-4
{9}
8000 м 4/4 900 м
[Cu med, cong]
+33.8 +11.6 26 +34 +34 очень
жарко
1013.7 1004.0 +38.8
21 19.09 З 2-3
{5}
8000 м 4/4 900 м
[Cu med, cong]
+32.8 +10.2 25 +32 +32 жарко 1015.0 1005.2

 

Местоположение метеостанции Таузар (Тунис): широта 33.92 долгота 8.17 высота над уровнем моря 86 м.

В архиве по умолчанию представлена погода в Таузаре за последнюю неделю. Архивные данные за месяц целиком и за предыдущие месяцы, начиная с января 2011 года, Вы можете получить, выбрав интересующий диапазон дат из раскрывающегося списка и нажав кнопку "Ввод!".


*Определитесь, кто Вы:
робот инопланетянин человек

Внимание! Время в таблицах - всемирное. Для получения местного времени необходимо прибавить поправку, которая равна 1 ч.

Смотрите также архив погоды в соседних городах и на ближайших метеорологических станциях:

Погода в Кебили (Тунис) (78 км)
Погода в Гафсе (Тунис) (82 км)
Погода в Эль-Уэде (Алжир) (137 км)
Погода в Кассерине (Тунис) (139 км)
Погода в Габесе (Тунис) (163 км)
Погода в Тебессе (Алжир) (167 км)
Погода в Сиди Бузид (Тунис) (170 км)
Погода в Тале (Тунис) (187 км)
Погода в Хеншеле (Алжир) (199 км)
Погода в Туггурте (Алжир) (209 км)

Пояснения к столбцам:

Ветер - указаны скорость ветра в м/с - средняя за 10 мин, порывы в срок и между сроками (в фигурных скобках) и направление, откуда дует ветер: С - северный, СВ - северо-восточный, В - восточный, ЮВ - юго-восточный, Ю - южный, ЮЗ - юго-западный, З - западный, СЗ - северо-западный.
Видимость - горизонтальная дальность видимости в метрах или километрах. При видимости от 1 до 10 км при отсутствии осадков обычно наблюдается дымка, при ухудшении видимости до 1 км и менее - туман. В сухую погоду видимость может ухудшаться дымом, пылью или мглою.
Явления - указаны атмосферные явления, наблюдавшиеся в срок или в последний час перед сроком; фигурными скобками обозначены явления, наблюдавшиеся между сроками (за 1-3 часа до срока); квадратными скобками обозначены град или гололедные отложения с указанием их диаметра в мм.
Облачность - указаны через наклонную черту общая и нижняя облачность в баллах и высота нижней границы облаков в метрах; квадратными скобками обозначены формы облаков: Ci - перистые, Cs - перисто-слоистые, Cc - перисто-кучевые, Ac - высококучевые, As - высокослоистые, Sc - слоисто-кучевые, Ns - слоисто-дождевые, Cu - кучевые, Cb - кучево-дождевые. Подробнее классификацию облаков см. в Атласе облаков (PDF).
T - Температура воздуха - температура, измеренная на высоте 2 м над землей.
Td - Температура точки росы - температура, при понижении до которой содержащийся в воздухе водяной пар достигнет насыщения.
f - Относительная влажность воздуха - влажноcть воздуха, измеренная на высоте 2 м над землей.
Te - Эффективная температура - температура, которую ощущает одетый по сезону человек в тени. Характеристика душности погоды. При расчете учитывается влияние влажности воздуха и скорости ветра на теплоощущения человека.
Tes - Эффективная температура на солнце - температура, которую ощущает человек, с поправкой на солнечный нагрев. Характеристика знойности погоды. Зависит от высоты солнца над горизонтом, облачности и скорости ветра. Ночью, в пасмурную погоду, а также при ветре 12 м/с и более поправка равна нулю.
P - Атмосферное давление - приведенное к уровню моря атмосферное давление.
Po - Атмосферное давление - измеренное на уровне метеостанции атмосферное давление.
Tmin - Минимальная температура - минимум температуры воздуха на высоте 2 м над землей.
Tmax - Максимальная температура - максимум температуры воздуха на высоте 2 м над землей.
R - Количество осадков - Количество выпавших осадков за период времени, мм. При наведении курсора мыши на число - период времени, за который выпало указанное количество осадков.
R24 - Количество осадков - Количество выпавших осадков за 24 часа, мм.
S - Снежный покров - Высота снежного покрова, см. При наведении курсора мыши на число - состояние снежного покрова и степень покрытия местности в баллах.